Terminal Aerodrome Forecast
Issued by NWS

Home | Current Version | Previous Version | Graphics & Text | Print | Product List | Glossary On
Versions: 1 2 3 4 5 6 7 8 9 10 11 12 13 14 15 16 17 18 19 20 21
162
FTUS42 KMHX 261729
TAFPGV
TAF
KPGV 261729Z 2618/2718 23013G20KT P6SM FEW250
     FM270300 22008KT P6SM SCT250
      AMD LTD TO CLD VIS AND WIND=

USA.gov is the U.S. government's official web portal to all federal, state and local government web resources and services.